Location: Hope
(40.9110°N, 74.9680°W)
Time: 10:41:04
(UTC-04:00)

OTV 5 (USA 277) - Pass Details

Date: 31 January 2019
Orbit: 310 x 325 km, 54.5° (Epoch: 16 April)

Event Time Altitude Azimuth Distance (km) Brightness Sun altitude
Exits shadow 05:17:24 12° 27° (NNE) 1,155 ? -21.7°
Drops below altitude 10° 05:17:39 10° 30° (NNE) 1,244 ? -21.7°
Sets 05:19:46 0° 42° (NE) 2,082 ? -21.3°
